|
Comets C/2009 Y3, 2009 Y4 (STEREO)
(Preview)
|
Solar System
|
0
|
2006
|
|
| |
Orbital elements: Comet T q e Peri. Node Incl. C CK09Y030 2009 Dec. 20.474 0.00524 1.0 85.354 6.291 144.402 X CK09Y040 2010 Jan. 3.537 0.00486 1.0 83.191 4.567 144.573 X MPEC 2010 - B28
|
|
|
|
|
|
STEREO satellite
(
1 2 3 4 5 … 7
)
(Preview)
|
Mission News
|
66
|
35010
|
|
| |
The first spacecraft designed to capture 3-D “stereo” views of the sun and solar wind were shipped, on the 9th November, from the Johns Hopkins University Applied Physics Laboratory (APL) in Laurel, Maryland., to NASA Goddard Space Flight Centre (GSFC) in Greenbelt, Maryland., for their next rou...
|
|
|
|
|
|
Comets C/2008 W1, 2009 A1 (STEREO)
(Preview)
|
Solar System
|
1
|
1944
|
|
| |
Orbital elements: Comet T q e Peri. Node Incl. C CK08W010 2008 Nov. 19.97 0.0051 1.0 84.72 6.05 142.75 X CK09A010 2009 Jan. 11.78 0.1271 1.0 102.33 340.01 51.47 X Ephemeris: C/2009 A1 (STEREO) Date TT R. A. (2000) Decl. Delta r Elong. Phase m1 m2 2009 01 24 18 43.70 -38 49.8 0.922 0.488 29.4 82.4 17.7 2009 0...
|
|
|
|
|
|
STEREO Comets: C/2008 D1, D2, D3, D4
(Preview)
|
Solar System
|
0
|
3327
|
|
| |
Four new comets were discovered on NRL/SECCHI images taken by various remote instruments (HI1-A, COR2-A, HI1-B, COR2-B) on the STEREO-A and STEREO-B satellites. C/2008 D1 (STEREO) - Alan Watson - HI1-A, February 16, 2008 (20:09-23:29 UTC)...
|
|
|
|
|
|
Comet C/2010 E6 (STEREO)
(Preview)
|
Solar System
|
0
|
1998
|
|
| |
Orbital elements: C/2010 E6 (STEREO) T 2010 Mar. 12.893 TT MPC q 0.00480 (2000.0) P Q Peri. 83.206 +0.179783 -0.982711 Node 4.381 -0.960942 -0.185066 e 1.0 Incl. 144.595 +0.210403 -0.005529 From 141 observations 2010 Mar. 8-12.[url=http://www.minorplanetcenter.org/mpec/K10/K10L19.html...
|
|
|
|
|